TimeEST,TemperatureF,Dew PointF,Humidity,Sea Level PressureIn,VisibilityMPH,Wind Direction,Wind SpeedMPH,Gust SpeedMPH,PrecipitationIn,Events,Conditions,WindDirDegrees,DateUTC
12:53 AM,19.9,9.0,62,30.17,10.0,Calm,Calm,-,N/A,,Clear,0,2014-03-01 05:53:00
1:53 AM,19.9,10.9,68,30.17,10.0,Calm,Calm,-,N/A,,Clear,0,2014-03-01 06:53:00
2:53 AM,19.0,10.0,68,30.17,10.0,Calm,Calm,-,N/A,,Clear,0,2014-03-01 07:53:00
3:53 AM,19.0,10.9,71,30.16,10.0,Calm,Calm,-,N/A,,Clear,0,2014-03-01 08:53:00
4:53 AM,18.0,10.9,74,30.16,10.0,Calm,Calm,-,N/A,,Clear,0,2014-03-01 09:53:00
5:53 AM,18.0,10.9,74,30.17,10.0,Calm,Calm,-,N/A,,Partly Cloudy,0,2014-03-01 10:53:00
6:53 AM,19.9,12.9,74,30.18,10.0,Calm,Calm,-,N/A,,Clear,0,2014-03-01 11:53:00
7:53 AM,21.9,15.1,75,30.20,10.0,Calm,Calm,-,N/A,,Scattered Clouds,0,2014-03-01 12:53:00
8:53 AM,34.0,21.0,59,30.20,10.0,Calm,Calm,-,N/A,,Partly Cloudy,0,2014-03-01 13:53:00
9:53 AM,41.0,18.0,40,30.21,10.0,SW,8.1,-,N/A,,Overcast,230,2014-03-01 14:53:00
10:53 AM,45.0,21.9,40,30.21,10.0,SW,15.0,23.0,N/A,,Mostly Cloudy,230,2014-03-01 15:53:00
11:53 AM,45.0,27.0,49,30.20,10.0,WSW,15.0,24.2,N/A,,Overcast,240,2014-03-01 16:53:00
12:53 PM,45.0,28.0,52,30.19,10.0,SW,13.8,19.6,N/A,,Overcast,230,2014-03-01 17:53:00
1:53 PM,44.1,30.0,58,30.17,10.0,WSW,12.7,-,N/A,,Overcast,240,2014-03-01 18:53:00
2:53 PM,43.0,30.9,62,30.17,10.0,SW,11.5,-,N/A,,Overcast,230,2014-03-01 19:53:00
3:53 PM,44.1,30.0,58,30.14,10.0,SSW,11.5,-,N/A,,Mostly Cloudy,200,2014-03-01 20:53:00
4:53 PM,45.0,28.9,53,30.14,10.0,SW,10.4,-,N/A,,Overcast,220,2014-03-01 21:53:00
5:53 PM,44.1,28.0,53,30.16,10.0,SSW,9.2,-,N/A,,Overcast,210,2014-03-01 22:53:00
6:53 PM,44.1,27.0,51,30.15,10.0,South,5.8,-,N/A,,Overcast,180,2014-03-01 23:53:00
7:53 PM,43.0,28.0,56,30.15,10.0,South,4.6,-,N/A,,Overcast,180,2014-03-02 00:53:00
8:53 PM,42.1,27.0,55,30.14,10.0,Calm,Calm,-,N/A,,Overcast,0,2014-03-02 01:53:00
9:53 PM,41.0,28.0,60,30.15,10.0,Calm,Calm,-,N/A,,Overcast,0,2014-03-02 02:53:00
10:53 PM,41.0,28.0,60,30.12,10.0,Calm,Calm,-,N/A,,Overcast,0,2014-03-02 03:53:00
11:53 PM,41.0,28.9,62,30.10,10.0,South,3.5,-,N/A,,Overcast,170,2014-03-02 04:53:00